Back to catalog

COSMOS 2289

GLONASS

AliveNavigationMEO
NORAD 23204·PAYLOAD·🇷🇺 Russia

Launched Aug 11, 1994 from Baikonur Cosmodrome

Loading…

Next Passes (next 24 hours)

TLE

FreshSource: Space-Track

Epoch: Sep 13, 2026, 23:35 UTC

1 23204U 94050B   26256.98293341  .00000021  00000-0  00000-0 0  9992
2 23204  65.4082 199.2017 0009050 322.0379  37.8871  2.13103347249561

Track COSMOS 2289 in real time with AllMySat

Download on the App Store